WE0DX-1 Weather Reports


Display with metric or nautical units.
time (UTC)temp
F
wind
direction
speed
MPH
gust
MPH
rain 1hr
in
rain 24hr
in
rain mn
in
humidity
%
barometer
mb
20260902123102 80 108 0.0 0.0 0.00 0.00 0.00 66 1015.0
20260902122601 80 101 1.0 6.0 0.00 0.00 0.00 66 1014.8
20260902122057 80 108 0.0 2.0 0.00 0.00 0.00 66 1015.0
20260902121557 80 117 0.0 0.0 0.00 0.00 0.00 66 1014.6
20260902121052 80 112 0.0 0.0 0.00 0.00 0.00 66 1014.8
20260902120548 80 162 0.0 0.0 0.00 0.00 0.00 66 1014.7
20260902120044 80 119 0.0 0.0 0.00 0.00 0.00 66 1014.6
20260902115539 80 107 0.0 0.0 0.00 0.00 0.00 66 1014.6
20260902115035 80 119 0.0 0.0 0.00 0.00 0.00 66 1014.5
20260902114531 80 107 0.0 0.0 0.00 0.00 0.00 66 1014.5
20260902114031 80 123 0.0 0.0 0.00 0.00 0.00 66 1014.7
20260902113526 80 146 0.0 0.0 0.00 0.00 0.00 66 1014.7
20260902113022 80 146 0.0 0.0 0.00 0.00 0.00 66 1014.4
20260902112517 80 115 0.0 0.0 0.00 0.00 0.00 65 1014.7
20260902112014 80 103 0.0 0.0 0.00 0.00 0.00 65 1014.3
20260902111509 80 108 0.0 0.0 0.00 0.00 0.00 64 1014.5
20260902111005 80 135 0.0 0.0 0.00 0.00 0.00 64 1014.3
20260902110501 81 112 0.0 0.0 0.00 0.00 0.00 63 1014.5
20260902105955 81 175 0.0 0.0 0.00 0.00 0.00 64 1014.2
20260902105451 81 112 0.0 0.0 0.00 0.00 0.00 63 1014.4
20260902104950 81 116 0.0 0.0 0.00 0.00 0.00 63 1014.3
20260902104446 81 137 1.0 1.0 0.00 0.00 0.00 63 1014.5
20260902103940 81 123 0.0 0.0 0.00 0.00 0.00 62 1014.5
20260902103436 81 102 0.0 0.0 0.00 0.00 0.00 63 1014.3
20260902102930 81 275 2.0 2.0 0.00 0.00 0.00 62 1014.4
20260902102428 81 109 0.0 0.0 0.00 0.00 0.00 62 1014.4
20260902101925 81 122 0.0 0.0 0.00 0.00 0.00 63 1014.4
20260902101424 81 110 0.0 0.0 0.00 0.00 0.00 62 1014.5
20260902100923 81 118 0.0 0.0 0.00 0.00 0.00 62 1014.3
20260902100418 81 113 0.0 2.0 0.00 0.00 0.00 62 1014.2
20260902095912 81 145 0.0 0.0 0.00 0.00 0.00 61 1014.2
20260902095408 81 106 0.0 1.0 0.00 0.00 0.00 61 1014.1
20260902094907 81 97 0.0 1.0 0.00 0.00 0.00 61 1014.0
20260902094403 81 166 0.0 0.0 0.00 0.00 0.00 62 1014.2
20260902093902 81 117 0.0 0.0 0.00 0.00 0.00 62 1013.9
20260902093357 80 94 0.0 0.0 0.00 0.00 0.00 62 1014.0
20260902092856 80 137 0.0 0.0 0.00 0.00 0.00 62 1013.8
20260902092347 80 110 0.0 0.0 0.00 0.00 0.00 62 1013.9
20260902091846 81 112 0.0 0.0 0.00 0.00 0.00 62 1014.0
20260902091342 81 109 0.0 0.0 0.00 0.00 0.00 62 1014.0
20260902090838 81 119 0.0 0.0 0.00 0.00 0.00 62 1014.1
20260902090332 80 151 0.0 0.0 0.00 0.00 0.00 63 1014.0
20260902085831 81 98 0.0 0.0 0.00 0.00 0.00 62 1013.8
20260902085326 81 102 0.0 0.0 0.00 0.00 0.00 62 1013.6
20260902084821 81 114 0.0 0.0 0.00 0.00 0.00 61 1013.7
20260902084318 81 104 0.0 0.0 0.00 0.00 0.00 61 1013.9
20260902083813 81 95 0.0 0.0 0.00 0.00 0.00 61 1013.8
20260902083308 81 104 0.0 0.0 0.00 0.00 0.00 61 1013.7
20260902082803 82 102 0.0 0.0 0.00 0.00 0.00 61 1013.6
20260902082259 82 107 0.0 0.0 0.00 0.00 0.00 61 1013.5
20260902081755 82 146 0.0 0.0 0.00 0.00 0.00 60 1013.6
20260902081251 82 178 0.0 0.0 0.00 0.00 0.00 60 1013.7
20260902080751 81 114 0.0 0.0 0.00 0.00 0.00 61 1013.4
20260902080248 82 132 0.0 0.0 0.00 0.00 0.00 60 1013.6
20260902075748 82 97 0.0 0.0 0.00 0.00 0.00 60 1013.4
20260902075244 82 100 0.0 0.0 0.00 0.00 0.00 60 1013.3
20260902074743 82 92 0.0 0.0 0.00 0.00 0.00 59 1013.6
20260902074239 82 102 0.0 0.0 0.00 0.00 0.00 59 1013.7
20260902073734 82 109 0.0 0.0 0.00 0.00 0.00 59 1013.5
20260902073230 83 87 0.0 0.0 0.00 0.00 0.00 59 1013.7
20260902072726 83 100 0.0 0.0 0.00 0.00 0.00 57 1013.6
20260902072222 83 107 0.0 0.0 0.00 0.00 0.00 57 1013.6
20260902071718 83 105 0.0 0.0 0.00 0.00 0.00 57 1013.5
20260902071213 83 108 0.0 0.0 0.00 0.00 0.00 57 1013.4
20260902070709 83 112 0.0 0.0 0.00 0.00 0.00 57 1013.6
20260902070208 83 112 0.0 0.0 0.00 0.00 0.00 56 1013.5
20260902065707 83 118 0.0 0.0 0.00 0.00 0.00 56 1013.6
20260902065203 83 109 0.0 0.0 0.00 0.00 0.00 57 1013.8
20260902064658 83 102 0.0 0.0 0.00 0.00 0.00 57 1013.6
20260902064154 83 96 0.0 0.0 0.00 0.00 0.00 56 1013.6
20260902063649 83 106 0.0 0.0 0.00 0.00 0.00 56 1013.6
20260902063144 83 119 0.0 0.0 0.00 0.00 0.00 56 1013.9
20260902062644 84 100 0.0 0.0 0.00 0.00 0.00 56 1013.6
20260902062139 84 112 0.0 0.0 0.00 0.00 0.00 55 1013.6
20260902061638 84 111 0.0 0.0 0.00 0.00 0.00 55 1013.5
20260902061134 84 99 0.0 0.0 0.00 0.00 0.00 55 1013.9
20260902060630 84 99 0.0 0.0 0.00 0.00 0.00 54 1013.8
20260902060126 84 140 0.0 0.0 0.00 0.00 0.00 54 1013.7
20260902055622 85 100 0.0 0.0 0.00 0.00 0.00 54 1013.7
20260902055117 85 100 0.0 0.0 0.00 0.00 0.00 53 1013.7
20260902054612 85 104 0.0 0.0 0.00 0.00 0.00 53 1013.6
20260902054108 85 138 0.0 0.0 0.00 0.00 0.00 53 1013.7
20260902053603 85 133 0.0 0.0 0.00 0.00 0.00 53 1013.8
20260902053102 85 125 0.0 0.0 0.00 0.00 0.00 53 1013.7
20260902052556 86 103 0.0 0.0 0.00 0.00 0.00 53 1013.8
20260902052052 86 101 0.0 0.0 0.00 0.00 0.00 52 1013.8
20260902051547 86 97 0.0 0.0 0.00 0.00 0.00 52 1013.6
20260902051046 86 119 0.0 0.0 0.00 0.00 0.00 52 1013.8
20260902050541 85 114 0.0 0.0 0.00 0.00 0.00 52 1013.8
20260902050036 85 129 0.0 0.0 0.00 0.00 0.00 53 1013.8
20260902045531 86 147 0.0 0.0 0.00 0.00 0.00 52 1013.4
20260902045027 86 149 0.0 0.0 0.00 0.00 0.00 52 1013.6
20260902044522 86 165 0.0 0.0 0.00 0.00 0.00 52 1013.5
20260902044018 85 124 0.0 0.0 0.00 0.00 0.00 52 1013.5
20260902043512 86 103 0.0 0.0 0.00 0.00 0.00 52 1013.4
20260902043007 86 95 0.0 0.0 0.00 0.00 0.00 52 1013.5
20260902042507 86 122 0.0 0.0 0.00 0.00 0.00 52 1013.5
20260902042002 86 147 0.0 0.0 0.00 0.00 0.00 52 1013.4
20260902041501 86 138 0.0 0.0 0.00 0.00 0.00 52 1013.7
20260902040956 86 105 0.0 0.0 0.00 0.00 0.00 52 1013.7
20260902040451 86 95 0.0 0.0 0.00 0.00 0.00 52 1013.6
20260902035949 86 140 0.0 0.0 0.00 0.00 0.00 51 1013.6
20260902035444 86 105 0.0 0.0 0.00 0.00 0.00 52 1013.4
20260902034938 86 186 0.0 0.0 0.00 0.00 0.00 51 1013.5
20260902034433 86 101 0.0 0.0 0.00 0.00 0.00 51 1013.9
20260902033933 86 110 0.0 0.0 0.00 0.00 0.00 51 1013.7
20260902033432 86 90 0.0 0.0 0.00 0.00 0.00 52 1013.7
20260902032931 86 108 0.0 0.0 0.00 0.00 0.00 52 1013.7
20260902032426 86 84 0.0 0.0 0.00 0.00 0.00 51 1013.6
20260902031920 87 132 0.0 0.0 0.00 0.00 0.00 50 1013.3
20260902031416 87 102 0.0 0.0 0.00 0.00 0.00 50 1013.3
20260902030912 87 149 0.0 0.0 0.00 0.00 0.00 50 1013.5
20260902030406 87 111 0.0 0.0 0.00 0.00 0.00 50 1013.4
20260902025905 87 127 0.0 0.0 0.00 0.00 0.00 50 1013.3
20260902025401 88 100 0.0 0.0 0.00 0.00 0.00 49 1013.3
20260902024855 87 113 0.0 0.0 0.00 0.00 0.00 49 1013.3
20260902024351 87 125 0.0 0.0 0.00 0.00 0.00 49 1013.2
20260902023846 88 110 0.0 0.0 0.00 0.00 0.00 49 1013.0
20260902023342 88 172 0.0 0.0 0.00 0.00 0.00 48 1013.3
20260902022841 88 105 0.0 0.0 0.00 0.00 0.00 48 1013.3
20260902022336 88 97 0.0 0.0 0.00 0.00 0.00 48 1013.2
20260902021832 88 108 0.0 0.0 0.00 0.00 0.00 48 1013.2
20260902021326 88 111 0.0 0.0 0.00 0.00 0.00 48 1013.2
20260902020822 88 102 0.0 0.0 0.00 0.00 0.00 48 1013.0
20260902020319 89 106 0.0 0.0 0.00 0.00 0.00 48 1013.1
20260902015814 89 100 0.0 0.0 0.00 0.00 0.00 47 1013.0
20260902015310 89 123 0.0 0.0 0.00 0.00 0.00 47 1013.1
20260902014805 89 158 0.0 0.0 0.00 0.00 0.00 46 1012.7
20260902014302 89 104 0.0 0.0 0.00 0.00 0.00 47 1012.9
20260902013800 89 111 0.0 0.0 0.00 0.00 0.00 47 1012.8
20260902013256 89 98 0.0 0.0 0.00 0.00 0.00 48 1012.9
20260902012751 89 147 0.0 0.0 0.00 0.00 0.00 46 1012.7
20260902012247 89 87 0.0 0.0 0.00 0.00 0.00 46 1012.8
20260902011742 90 95 0.0 0.0 0.00 0.00 0.00 46 1012.5
20260902011242 90 97 0.0 0.0 0.00 0.00 0.00 45 1012.7
20260902010741 90 89 0.0 0.0 0.00 0.00 0.00 45 1012.7
20260902010237 90 99 0.0 0.0 0.00 0.00 0.00 44 1012.7
20260902005735 91 99 0.0 0.0 0.00 0.00 0.00 44 1012.5
20260902005231 91 101 0.0 0.0 0.00 0.00 0.00 43 1012.7
20260902004725 91 162 0.0 0.0 0.00 0.00 0.00 43 1012.7
20260902004221 91 106 0.0 0.0 0.00 0.00 0.00 43 1012.9
20260902003715 91 107 0.0 0.0 0.00 0.00 0.00 43 1012.7
20260902003211 92 99 0.0 0.0 0.00 0.00 0.00 43 1012.5
20260902002706 92 100 0.0 0.0 0.00 0.00 0.00 43 1012.7
20260902002201 92 116 0.0 0.0 0.00 0.00 0.00 43 1012.7
20260902001656 93 106 0.0 0.0 0.00 0.00 0.00 42 1012.8
20260902001156 93 101 0.0 0.0 0.00 0.00 0.00 43 1013.0
20260902000651 93 100 0.0 0.0 0.00 0.00 0.00 42 1012.9
20260902000146 93 124 0.0 0.0 0.00 0.00 0.00 41 1012.7
20260901235640 94 105 0.0 0.0 0.00 0.00 0.00 41 1013.0
20260901235136 94 99 0.0 0.0 0.00 0.00 0.00 42 1013.2
20260901234634 94 103 0.0 0.0 0.00 0.00 0.00 42 1013.0
20260901234130 94 94 0.0 0.0 0.00 0.00 0.00 41 1013.0
20260901233625 95 128 0.0 0.0 0.00 0.00 0.00 40 1013.0
20260901233121 95 111 0.0 0.0 0.00 0.00 0.00 39 1013.2
20260901232621 95 121 0.0 0.0 0.00 0.00 0.00 39 1013.2
20260901232116 95 97 0.0 0.0 0.00 0.00 0.00 39 1013.2
20260901231612 95 130 0.0 2.0 0.00 0.00 0.00 39 1013.1
20260901231108 96 115 0.0 2.0 0.00 0.00 0.00 38 1013.2
20260901230603 96 211 0.0 0.0 0.00 0.00 0.00 38 1012.9
20260901230058 96 157 0.0 0.0 0.00 0.00 0.00 39 1013.1
20260901225553 96 139 1.0 5.0 0.00 0.00 0.00 38 1013.2
20260901225052 96 198 0.0 0.0 0.00 0.00 0.00 37 1013.1
20260901224549 96 103 0.0 0.0 0.00 0.00 0.00 37 1013.1
20260901224044 96 320 1.0 1.0 0.00 0.00 0.00 36 1013.1
20260901223540 97 122 1.0 2.0 0.00 0.00 0.00 35 1013.3
20260901223035 97 147 1.0 2.0 0.00 0.00 0.00 35 1013.0
20260901222531 97 202 2.0 3.0 0.00 0.00 0.00 35 1013.1
20260901222027 97 207 2.0 2.0 0.00 0.00 0.00 35 1012.9
20260901221523 97 132 0.0 2.0 0.00 0.00 0.00 36 1013.2
20260901221018 97 211 2.0 5.0 0.00 0.00 0.00 35 1013.1
20260901220517 97 93 0.0 3.0 0.00 0.00 0.00 35 1013.2
20260901220016 97 126 2.0 3.0 0.00 0.00 0.00 35 1013.2
20260901215514 97 129 2.0 5.0 0.00 0.00 0.00 34 1013.0
20260901215009 97 180 3.0 5.0 0.00 0.00 0.00 34 1013.2
20260901214507 97 211 2.0 3.0 0.00 0.00 0.00 34 1013.1
20260901214001 98 201 0.0 0.0 0.00 0.00 0.00 34 1013.2
20260901213450 98 204 2.0 6.0 0.00 0.00 0.00 35 1013.2
20260901212950 98 215 0.0 0.0 0.00 0.00 0.00 35 1013.5
20260901212445 98 152 0.0 0.0 0.00 0.00 0.00 35 1013.4
20260901211942 98 143 1.0 5.0 0.00 0.00 0.00 34 1013.2
20260901211437 98 156 3.0 5.0 0.00 0.00 0.00 35 1013.4
20260901210932 98 100 0.0 2.0 0.00 0.00 0.00 36 1013.3
20260901210423 98 234 3.0 5.0 0.00 0.00 0.00 36 1013.7
20260901205919 98 97 1.0 3.0 0.00 0.00 0.00 36 1013.7
20260901205413 98 101 1.0 2.0 0.00 0.00 0.00 36 1013.5
20260901204908 98 218 2.0 2.0 0.00 0.00 0.00 35 1013.8
20260901204405 98 217 1.0 3.0 0.00 0.00 0.00 36 1013.8
20260901203904 98 189 1.0 5.0 0.00 0.00 0.00 35 1013.8
20260901203358 98 135 1.0 2.0 0.00 0.00 0.00 34 1013.6
20260901202854 98 139 3.0 3.0 0.00 0.00 0.00 36 1013.8
20260901202348 98 233 3.0 5.0 0.00 0.00 0.00 35 1014.1
20260901201845 98 219 0.0 3.0 0.00 0.00 0.00 33 1014.1
20260901201344 98 257 3.0 7.0 0.00 0.00 0.00 35 1014.0
20260901200838 98 152 3.0 3.0 0.00 0.00 0.00 35 1014.1
20260901200334 99 141 0.0 3.0 0.00 0.00 0.00 35 1014.0
20260901195832 98 155 3.0 3.0 0.00 0.00 0.00 35 1014.2
20260901195330 98 81 1.0 5.0 0.00 0.00 0.00 34 1014.3
20260901194827 98 215 0.0 2.0 0.00 0.00 0.00 36 1014.4
20260901194321 98 152 1.0 3.0 0.00 0.00 0.00 35 1014.1
20260901193818 98 192 3.0 5.0 0.00 0.00 0.00 35 1014.4
20260901193316 98 125 3.0 7.0 0.00 0.00 0.00 36 1014.3
20260901192811 99 184 2.0 3.0 0.00 0.00 0.00 37 1014.7
20260901192307 99 111 6.0 8.0 0.00 0.00 0.00 37 1014.6
20260901191802 98 118 0.0 1.0 0.00 0.00 0.00 38 1014.6
20260901191258 98 141 0.0 0.0 0.00 0.00 0.00 40 1014.7
20260901190754 98 96 0.0 0.0 0.00 0.00 0.00 38 1014.4
20260901190248 98 109 5.0 7.0 0.00 0.00 0.00 36 1014.7
20260901185746 98 122 1.0 6.0 0.00 0.00 0.00 39 1014.7
20260901185245 98 178 2.0 2.0 0.00 0.00 0.00 38 1014.5
20260901184741 98 134 3.0 5.0 0.00 0.00 0.00 39 1014.7
20260901184236 98 162 2.0 7.0 0.00 0.00 0.00 39 1014.9
20260901183732 97 103 1.0 5.0 0.00 0.00 0.00 40 1014.8
20260901183231 97 183 2.0 2.0 0.00 0.00 0.00 40 1014.8
20260901182727 97 216 2.0 2.0 0.00 0.00 0.00 41 1014.9
20260901182226 96 217 1.0 2.0 0.00 0.00 0.00 41 1014.9
20260901181721 96 199 0.0 2.0 0.00 0.00 0.00 41 1015.1
20260901181215 96 212 4.0 6.0 0.00 0.00 0.00 40 1015.1
20260901180714 96 205 2.0 3.0 0.00 0.00 0.00 40 1015.2
20260901180209 96 57 1.0 2.0 0.00 0.00 0.00 41 1015.3
20260901175709 96 136 0.0 2.0 0.00 0.00 0.00 42 1015.5
20260901175209 96 155 2.0 3.0 0.00 0.00 0.00 40 1015.4
20260901174704 96 172 2.0 3.0 0.00 0.00 0.00 41 1015.4
20260901174200 95 123 0.0 2.0 0.00 0.00 0.00 42 1015.4
20260901173655 95 131 3.0 3.0 0.00 0.00 0.00 42 1015.5
20260901173150 95 205 2.0 3.0 0.00 0.00 0.00 43 1015.5
20260901172646 95 203 2.0 3.0 0.00 0.00 0.00 44 1015.7
20260901172143 95 160 0.0 2.0 0.00 0.00 0.00 44 1015.7
20260901171643 95 185 0.0 0.0 0.00 0.00 0.00 44 1015.5
20260901171142 95 171 0.0 0.0 0.00 0.00 0.00 45 1015.8
20260901170642 94 188 0.0 1.0 0.00 0.00 0.00 46 1015.8
20260901170137 94 241 1.0 2.0 0.00 0.00 0.00 45 1015.9
20260901165636 94 217 0.0 0.0 0.00 0.00 0.00 45 1015.8
20260901165131 94 128 1.0 2.0 0.00 0.00 0.00 44 1016.1
20260901164627 93 175 2.0 2.0 0.00 0.00 0.00 46 1015.9
20260901164122 93 109 1.0 2.0 0.00 0.00 0.00 45 1016.0
20260901163618 93 164 0.0 3.0 0.00 0.00 0.00 47 1016.3
20260901163116 93 108 0.0 0.0 0.00 0.00 0.00 47 1016.0
20260901162612 92 117 0.0 0.0 0.00 0.00 0.00 46 1016.3
20260901162105 92 209 0.0 0.0 0.00 0.00 0.00 46 1016.0
20260901161605 92 170 0.0 0.0 0.00 0.00 0.00 46 1015.8
20260901161104 91 115 0.0 6.0 0.00 0.00 0.00 47 1016.3
20260901160601 91 98 0.0 0.0 0.00 0.00 0.00 50 1016.4
20260901160050 91 244 2.0 3.0 0.00 0.00 0.00 48 1016.3
20260901155549 90 118 1.0 5.0 0.00 0.00 0.00 49 1016.0
20260901155045 90 141 0.0 0.0 0.00 0.00 0.00 48 1016.1
20260901154544 90 126 3.0 7.0 0.00 0.00 0.00 49 1016.0
20260901154039 90 145 0.0 0.0 0.00 0.00 0.00 50 1015.8
20260901153534 89 241 0.0 1.0 0.00 0.00 0.00 51 1015.9
20260901153029 89 230 1.0 1.0 0.00 0.00 0.00 51 1015.9
20260901152528 89 167 0.0 0.0 0.00 0.00 0.00 52 1016.0
20260901152027 89 104 0.0 0.0 0.00 0.00 0.00 51 1016.1
20260901151523 88 198 0.0 0.0 0.00 0.00 0.00 51 1015.8
20260901151022 88 115 0.0 1.0 0.00 0.00 0.00 53 1016.1
20260901150520 87 121 0.0 2.0 0.00 0.00 0.00 54 1016.3
20260901150019 86 159 3.0 7.0 0.00 0.00 0.00 55 1015.9
20260901145513 86 108 0.0 0.0 0.00 0.00 0.00 56 1015.9
20260901145012 86 93 0.0 0.0 0.00 0.00 0.00 56 1015.9
20260901144508 86 125 0.0 0.0 0.00 0.00 0.00 55 1016.1
20260901144003 86 135 0.0 0.0 0.00 0.00 0.00 55 1016.1
20260901143459 86 107 0.0 0.0 0.00 0.00 0.00 54 1016.0
20260901142955 86 141 0.0 0.0 0.00 0.00 0.00 55 1016.1
20260901142449 85 129 0.0 0.0 0.00 0.00 0.00 57 1015.9
20260901141944 84 144 0.0 0.0 0.00 0.00 0.00 57 1016.0
20260901141438 84 95 0.0 0.0 0.00 0.00 0.00 58 1016.0
20260901140933 84 122 0.0 0.0 0.00 0.00 0.00 56 1016.0
20260901140431 84 114 0.0 0.0 0.00 0.00 0.00 57 1016.1
20260901135926 84 81 0.0 5.0 0.00 0.00 0.00 58 1016.1
20260901135420 83 106 0.0 0.0 0.00 0.00 0.00 59 1016.1
20260901134917 82 103 3.0 5.0 0.00 0.00 0.00 59 1016.3
20260901134412 82 94 0.0 0.0 0.00 0.00 0.00 59 1015.9
20260901133912 82 124 0.0 0.0 0.00 0.00 0.00 61 1016.3
20260901133406 82 146 0.0 1.0 0.00 0.00 0.00 59 1016.3
20260901132905 81 123 0.0 0.0 0.00 0.00 0.00 62 1016.4
20260901132400 81 120 0.0 0.0 0.00 0.00 0.00 62 1016.4
20260901131858 81 87 0.0 0.0 0.00 0.00 0.00 60 1016.1
20260901131358 81 101 2.0 2.0 0.00 0.00 0.00 61 1016.1
20260901130853 80 120 0.0 0.0 0.00 0.00 0.00 62 1016.6
20260901130348 80 137 0.0 0.0 0.00 0.00 0.00 61 1016.0
20260901125846 80 128 2.0 8.0 0.00 0.00 0.00 61 1016.0
20260901125345 80 104 0.0 0.0 0.00 0.00 0.00 61 1016.3
20260901124840 80 125 0.0 0.0 0.00 0.00 0.00 61 1016.1
20260901124336 80 110 0.0 0.0 0.00 0.00 0.00 62 1016.3
20260901123835 80 97 0.0 0.0 0.00 0.00 0.00 62 1016.1